Location: Winthrop
(48.4780°N, 120.1850°W)
Time: 17:39:19
(UTC-07:00)

Explorer 7 - Pass Details

Date: 30 January 2023
Orbit: 478 x 657 km, 50.3° (Epoch: 30 March)

Event Time Altitude Azimuth Distance (km) Brightness Sun altitude
Rises 16:09:57 0° 275° (W) 2,819 11.3 5.8°
Reaches altitude 10° 16:12:11 10° 278° (W) 1,948 10.5 5.5°
Maximum altitude 16:16:40 69° 1° (N) 671 7.3 4.9°
Drops below altitude 10° 16:21:22 10° 86° (E) 2,044 9.2 4.2°
Sets 16:23:46 0° 89° (E) 2,971 10.0 3.9°
